Location: Albany
(35.0000°S, 118.0000°E)
Time: 21:22:57
(UTC-05:00)

Cosmos 1346 Rocket - Visible Passes

Search period start: 17 December 2014 00:00
Search period end: 27 December 2014 00:00
Orbit: 529 x 567 km, 81.2° (Epoch: 17 December)

Date Brightness Start Highest point End Pass type
(mag) Time Alt. Az. Time Alt. Az. Time Alt. Az.
17 Dec 5.2 10:00:57 10° SSE 10:02:25 18° SSE 10:02:25 18° SSE visible
18 Dec 5.1 09:56:02 10° SSE 09:57:37 20° SSE 09:57:37 20° SSE visible
19 Dec 4.9 09:51:06 10° SSE 09:52:50 22° SSE 09:52:50 22° SSE visible
20 Dec 4.8 09:46:11 10° S 09:48:04 24° SSE 09:48:04 24° SSE visible
21 Dec 4.7 09:41:16 10° S 09:43:18 26° SSE 09:43:18 26° SSE visible
22 Dec 4.5 09:36:22 10° S 09:38:33 29° SSE 09:38:33 29° SSE visible
23 Dec 4.3 09:31:28 10° S 09:33:49 32° SSE 09:33:49 32° SSE visible
24 Dec 4.1 09:26:33 10° S 09:29:05 35° SSE 09:29:05 35° SSE visible
25 Dec 3.9 09:21:39 10° S 09:24:22 40° SSE 09:24:22 40° SSE visible
26 Dec 3.7 09:16:46 10° S 09:19:39 46° S 09:19:39 46° S visible
